Regional Weather Roundup
Issued by NWS

Home | Current Version | Previous Version | Text Only | Print | Product List | Glossary On
Versions: 1 2 3 4 5 6 7 8 9 10 11 12 13 14 15 16 17 18 19 20 21 22 23 24 25 26 27 28 29 30 31 32 33 34 35 36 37 38 39 40 41 42 43 44 45 46 47 48 49 50
000
ASUS43 KMKX 230525
RWRWI

WISCONSIN REGIONAL WEATHER ROUNDUP
NATIONAL WEATHER SERVICE MILWAUKEE/SULLIVAN WI
1200 AM CDT THU OCT 23 2014

NOTE: "FAIR" INDICATES FEW OR NO CLOUDS BELOW 12,000 FEET WITH NO
SIGNIFICANT WEATHER AND/OR OBSTRUCTIONS TO VISIBILITY.

WIZ001-002-006>008-014>016-023>028-230600-
NORTHWEST WISCONSIN

CITY           SKY/WX    TMP DP  RH WIND       PRES   REMARKS
SUPERIOR ARPT  MOCLDY    49  37  62 S5        30.02F
ASHLAND        CLOUDY    53  35  50 S9        30.06F
HAYWARD        LGT RAIN  50  40  68 S12       30.08F
SIREN          CLOUDY    53  37  55 S14       30.04F
CUMBERLAND     CLOUDY    48  39  71 SE7       30.07F
RICE LAKE      CLOUDY    49  41  74 SE8       30.10F
CHETEK         CLOUDY    49  42  75 E7        30.10F
LADYSMITH      CLOUDY    49  40  72 S6        30.13F
EAU CLAIRE     CLOUDY    53  38  56 SW9       30.13R
MENOMONIE      CLOUDY    51  43  75 SE5       30.10R
NEW RICHMOND   CLOUDY    52  38  58 S8        30.05F
OSCEOLA        CLOUDY    54  39  58 S7        30.07F
$$

WIZ003>005-009-010-017-018-230600-
NORTH CENTRAL WISCONSIN

CITY           SKY/WX    TMP DP  RH WIND       PRES   REMARKS
MANITOWISH WTR PTCLDY    44  36  72 S9        30.12F
ARBOR VITAE    PTCLDY    46  37  70 S10       30.13F
WOODRUFF       PTCLDY    46  37  70 S10       30.13F
RHINELANDER    MOCLDY    42  35  76 S8        30.16F
EAGLE RIVER    MOCLDY    39  33  77 S6        30.15F
LAND O LAKES   PTCLDY    43  35  74 S7        30.14F
PHILLIPS       CLOUDY    47  36  64 S12       30.12F
TOMAHAWK       CLOUDY    43  36  76 CALM      30.16S
MEDFORD        PTCLDY    43  35  75 SE7       30.14F
MERRILL        PTCLDY    41  37  86 SE7       30.17F
$$

WIZ029-030-035-036-043>047-230600-
CENTRAL WISCONSIN

CITY           SKY/WX    TMP DP  RH WIND       PRES   REMARKS
WAUSAU         CLEAR     39  36  89 E6        30.17F WCI  35
MOSINEE        CLEAR     37  36  93 SE7       30.19S WCI  32
MARSHFIELD     CLEAR     45  36  70 S8        30.16F
STEVENS POINT  CLEAR     38  36  91 SE5       30.19F WCI  35
WAUPACA        CLEAR     41  39  91 SE5       30.21F FOG
WAUTOMA        PTCLDY    39  37  92 SE5       30.21F
WISC RAPIDS    CLEAR     42  36  79 SE7       30.19F
CAMP DOUGLAS   CLEAR     39  38  95 E1        30.17S
$$

WIZ011>013-019>022-031-037>040-048>050-230600-
NORTHEAST WISCONSIN

CITY           SKY/WX    TMP DP  RH WIND       PRES   REMARKS
ANTIGO         CLEAR     35  35  99 SE6       30.19F FOG     WCI  30
SHAWANO        CLEAR     39  36  89 CALM      30.22F
OCONTO         CLEAR     41  40  97 S5        30.23F
STURGEON BAY   CLEAR     39  36  87 S7        30.24F WCI  34
GREEN BAY      CLEAR     37  35  92 S5        30.23F WCI  33
MANITOWOC      CLEAR     36  36 100 CALM      30.25F
APPLETON       CLEAR     39  37  93 S6        30.22F WCI  35
CLINTONVILLE   CLEAR     36  36 100 CALM      30.22F FOG
OSHKOSH        CLEAR     38  37  97 S6        30.22F WCI  33
$$

WIZ032>034-041-042-053>061-230600-
SOUTHWEST WISCONSIN

CITY           SKY/WX    TMP DP  RH WIND       PRES   REMARKS
LA CROSSE      MOCLDY    53  37  54 S6        30.13F
SPARTA         PTCLDY    50  35  56 SE6       30.15F
VIROQUA        MOCLDY    47  36  64 S9        30.15F
BOSCOBEL       PTCLDY    40  36  86 CALM      30.18F
PRAIRIE DU CHI MOCLDY    48  36  62 E8        30.16F
PLATTEVILLE    PTCLDY    44  35  71 SE8       30.20S
$$

WIZ056-057-062-063-064-067-068-230600-
SOUTH CENTRAL WISCONSIN

CITY           SKY/WX    TMP DP  RH WIND       PRES   REMARKS
REEDSBURG      CLEAR     45  35  67 CALM      30.18F
BARABOO/DELLS  CLEAR     43  34  70 SE6       30.18F
LONE ROCK      PTCLDY    45  35  68 E8        30.19F
MINERAL POINT  PTCLDY    45  34  65 SE8       30.19F
MADISON        CLEAR     42  38  85 S9        30.22F
MIDDLETON      CLEAR     41  38  88 SE5       30.21F
WATERTOWN      CLEAR     36  36 100 SE3       30.23F
MONROE         CLEAR     41  36  81 SE8       30.21F
JANESVILLE     CLEAR     37  36  93 SE5       30.23F WCI  34
$$

WIZ051-052-058>065-066-070>072-230600-
SOUTHEAST WISCONSIN

CITY           SKY/WX    TMP DP  RH WIND       PRES   REMARKS
MILWAUKEE      CLEAR     35  32  88 CALM      30.26F
WAUKESHA       CLEAR     36  34  93 SE5       30.26F WCI  32
MILWAUKEE/TIMM CLEAR     34  32  93 CALM      30.27F
RACINE         CLEAR     34  31  88 CALM      30.28F
BURLINGTON     FOG       29  29 100 NW3       30.26F VSB 1/4
KENOSHA        CLEAR     33  33 100 CALM      30.26F FOG
FOND DU LAC    CLEAR     39  36  89 S8        30.23F WCI  33
SHEBOYGAN      CLEAR     32  31  96 CALM      30.25F
WEST BEND      PTCLDY    32  32 100 CALM      30.25F
JUNEAU         CLEAR     37  36  95 SE10      30.24F FOG     WCI  30
$$

LSZ147-162-230600-
LAKE SUPERIOR

STATION/POSITION TIME  TEMP    WIND        PRES    WAVE
                       AIR SEA DIR/SP/G            HT/PER
                 (UTC) (F)     (DEG/KT/KT) (MB)    (FT/S)
W MID LAKE BUOY  0450   50 46  180/ 12/ 14 1018.7F   2/ 3
DEVILS ISLAND    0500   52     180/  8/ 10 1017.8F
PORT WING        0440   54     170/  7/ 10 1017.3F
SAXON HARBOR     0400   55     210/  6/ 18 1017.6F
$$

LMZ867-665-643>646-230600-
LAKE MICHIGAN

STATION/POSITION TIME  TEMP    WIND        PRES    WAVE
                       AIR SEA DIR/SP/G            HT/PER
                 (UTC) (F)     (DEG/KT/KT) (MB)    (FT/S)
CHAMBERS ISLAND  0400   42     150/  2/  5 1024.7F
N MID LAKE BUOY  0450   47 51  180/ 10/ 10 1025.1F   1
NORTHPORT PIER   0400   39     210/  1/  3 1024.7S
SISTER BAY       0413             CALM       N/A
ALGOMA LAKESHORE 0426          240/  7/  8   N/A
KEWAUNEE LAKESHO 0500   45     200/  6/  8 1023.3F
SHEBOYGAN LAKESH 0500   44 51  190/  5/  7 1025.2F
PORT WASHINGTON  0440   40     270/  3/  5 1025.4F
ATWATER BUOY     0500   48     180/  8/ 10 1025.6F
MILWAUKEE LAKESH 0500   46     200/  6/  6   N/A
S MID LAKE BUOY  0450   50 54  150/ 12/ 14 1025.5S   1/ 3
KENOSHA   LAKESH 0500   45     210/  5/  6 1024.7F
$$

TC  - TEMPERATURE IN CELSIUS
VSB - VISIBILITY IN STATUTE MILES
WCI - WIND CHILL INDEX
HX  - HEAT INDEX




USA.gov is the U.S. government's official web portal to all federal, state and local government web resources and services.